Regional Weather Roundup
Issued by NWS Cleveland, OH

Home | Current Version | Previous Version | Graphics & Text | Print | Product List | Glossary On
Versions: 1 2 3 4 5 6 7 8 9 10 11 12 13 14 15 16 17 18 19 20 21 22 23 24 25 26 27 28 29 30 31 32 33 34 35 36 37 38 39 40 41 42 43 44 45 46 47 48 49 50
000
ASUS41 KCLE 051712
RWRCLE
OHIO REGIONAL WEATHER ROUNDUP
NATIONAL WEATHER SERVICE WILMINGTON, OH
1200 PM EST FRI FEB 05 2016

NOTE: "FAIR" INDICATES FEW OR NO CLOUDS BELOW 12,000 FEET WITH NO
SIGNIFICANT WEATHER AND/OR OBSTRUCTIONS TO VISIBILITY.

OHZ001>008-015>018-024>027-034-035-043-044-051800-
   NORTHWEST OHIO

CITY           SKY/WX    TMP DP  RH WIND       PRES   REMARKS
DEFIANCE       FAIR      36  22  56 S9        30.36F
FINDLAY        FAIR      36  21  54 S14       30.37F
TOLEDO EXPRESS FAIR      34  20  56 S7        30.36F WCI  28
TOLEDO EXEC    FAIR      35  22  58 S9        30.38F WCI  28
LIMA           FAIR      34  18  52 S10       30.36F WCI  26
$$

OHZ009>014-019>023-028>033-038-089-051800-
   NORTHEAST OHIO

CITY           SKY/WX    TMP DP  RH WIND       PRES   REMARKS
CLE-HOPKINS    FAIR      32  19  58 SW8       30.41S WCI  25
CLE-LAKEFRONT  FAIR      31  20  63 SW7       30.39S WCI  24
CUY CO. ARPT   MOSUNNY   30  21  69 W9        30.38S WCI  22
LORAIN-ELYRIA  FAIR      31  18  58 W7        30.39F WCI  24
ASHTABULA      FAIR      28  16  60 W9        30.36F WCI  19
AKRON-CANTON   FAIR      33  18  53 W8        30.36F WCI  26
WOOSTER        FAIR      31  19  61 SW8       30.38F WCI  23
MANSFIELD      FAIR      32  16  51 W7        30.36F WCI  26
YOUNGSTOWN     PTSUNNY   30  16  56 NW7       30.34F WCI  23
$$

OHZ042-051>053-060>062-070>072-077>081-051800-
  SOUTHWEST OHIO

CITY           SKY/WX    TMP DP  RH WIND       PRES   REMARKS
CINC-COVINGTON FAIR      36  19  50 S8        30.41F
CINC-LUNKEN    FAIR      36  20  52 VRB6      30.45F
HAMILTON       FAIR      38  19  46 VRB5      30.43F
DAYTON         FAIR      35  19  52 S9        30.39F WCI  28
WRIGHT-PAT AFB FAIR      36  14  40 S8        30.40F
DAYTON GENERAL FAIR      35  19  52 SW9       30.40F WCI  28
WILMINGTON     FAIR      33  21  61 S9        30.41F WCI  25
$$

OHZ036-037-039>041-045>050-054>059-063>069-073>076-082>088-051800-
  CENTRAL AND SOUTHEAST OHIO

CITY           SKY/WX    TMP DP  RH WIND       PRES   REMARKS
COLUMBUS       FAIR      33  18  53 SW6       30.41F WCI  28
OSU AIRPORT    FAIR      34  19  54 MISG      30.40F
BOLTON FIELD   SUNNY     34  21  60 SW3       30.41F
RICKENBACK AFB FAIR      33  21  62 SW7       30.42F WCI  26
NEWARK         FAIR      33  19  56 S8        30.40F WCI  26
MARION         FAIR      33  19  56 SW7       30.39F WCI  27
LANCASTER      FAIR      34  19  54 SW7       30.42F WCI  28
ZANESVILLE     FAIR      34  18  52 VRB5      30.42S WCI  30
NEW PHILLY     FAIR      32  17  54 W5        30.40F WCI  27
$$



USA.gov is the U.S. government's official web portal to all federal, state and local government web resources and services.